Wind_Speed
36 34 31 28 24 26 26 27 29 30 29 28 26 25 23 19 16 12 10 10 8 7 5 8 11 12 9 7 7 9 9 8 9 9 9 9 10 11 11 11 10 9 7
39 37 34 29 25 29 28 29 32 33 31 30 28 26 24 19 15 13 14 14 14 13 12 10 12 8 7 9 8 9 9 12 12 11 13 12 12 12 12 14 15 16 16
42 38 33 30 29 31 31 33 34 34 32 30 27 24 21 16 15 14 15 13 12 14 15 15 11 10 9 10 8 9 10 12 12 12 11 10 11 11 13 15 15 14 14
46 39 37 33 31 33 35 36 36 35 33 31 28 24 19 17 17 16 16 15 12 11 15 14 15 13 10 8 9 12 12 12 12 11 10 12 12 14 15 13 13 14 14
46 40 38 36 34 36 37 38 36 35 34 31 30 27 23 21 21 19 19 18 16 16 15 16 16 15 12 12 11 13 14 14 14 13 14 13 14 15 15 14 14 13 13
44 43 34 39 34 35 38 40 40 37 34 35 33 28 24 22 20 18 18 18 18 17 16 16 15 15 14 15 16 14 13 13 12 12 12 11 11 11 13 15 13 14 15
44 42 36 40 38 39 40 43 41 40 38 37 37 29 23 20 18 18 17 18 17 18 19 17 14 11 11 11 15 14 13 12 10 9 10 9 9 9 11 11 13 13 11
47 47 40 40 38 43 43 44 45 44 42 42 39 36 21 18 17 18 17 16 15 16 18 17 18 17 15 14 13 14 11 12 10 7 5 6 8 9 10 12 13 13 14
55 54 42 39 41 43 44 44 47 48 48 44 42 27 17 12 27 18 18 18 19 18 16 16 17 18 18 15 13 12 11 7 9 6 5 9 10 12 12 12 10 13 11
50 50 33 45 46 43 47 50 50 48 49 49 46 40 29 23 22 19 22 20 19 19 17 17 15 15 17 17 15 12 9 8 8 7 6 7 11 12 9 11 12 12 13
44 41 38 49 48 48 49 50 50 51 49 50 54 48 35 21 34 34 33 31 22 19 19 18 16 15 17 15 13 14 11 8 6 4 3 2 5 8 9 10 9 10 12
36 35 45 54 58 49 48 49 49 52 52 53 49 50 48 40 36 36 31 40 34 26 19 18 18 16 16 13 14 15 12 10 8 5 4 2 3 5 8 9 8 8 10
32 30 38 49 48 44 54 51 54 52 55 54 51 49 49 42 36 34 29 40 39 29 21 19 18 16 14 13 13 14 13 11 9 7 5 2 0 2 2 3 6 6 6
27 26 31 37 43 45 50 47 51 52 56 57 53 48 51 41 36 34 33 38 34 32 26 28 23 18 16 15 12 13 15 12 10 7 5 2 0 1 2 3 4 5 5
34 30 31 32 37 43 49 54 51 54 56 57 54 51 47 47 37 33 35 37 42 30 33 32 28 26 21 17 14 15 15 13 10 6 4 3 2 1 2 4 6 7 7
33 35 33 35 36 42 46 52 53 53 56 57 57 54 47 49 39 34 36 35 39 30 31 38 38 31 26 18 15 16 15 12 10 8 5 3 2 1 2 4 6 7 7
30 33 33 39 41 40 47 51 53 53 54 56 58 53 46 45 41 35 34 35 35 30 25 31 34 29 28 24 22 19 15 12 9 8 7 5 3 2 2 3 4 5 6
37 35 31 34 44 48 49 51 57 57 58 57 59 54 43 42 41 36 36 34 29 30 24 27 34 35 29 26 21 20 15 12 9 8 7 5 4 1 2 3 4 5 5
37 33 34 32 37 49 53 52 51 59 58 58 58 53 45 45 43 41 39 39 33 30 24 24 38 36 32 26 24 19 15 14 11 7 6 5 2 1 1 2 3 5 6
37 33 36 36 35 46 58 55 56 56 59 58 54 50 47 47 43 43 39 39 32 33 24 27 37 38 32 29 23 23 22 18 13 9 7 4 3 5 2 1 3 4 6
30 31 30 31 38 40 53 54 56 56 56 51 48 43 44 44 48 46 36 36 34 35 32 34 39 39 38 35 33 30 22 20 15 11 9 6 2 1 2 3 3 6 7
32 31 27 28 33 49 52 52 43 50 49 47 43 41 43 46 42 43 39 32 37 36 37 36 38 39 38 38 35 29 26 24 21 17 12 7 5 2 1 1 3 5 6
34 31 30 33 34 44 42 44 46 45 50 46 48 51 55 48 43 38 33 34 36 32 29 30 32 37 36 34 33 30 26 21 16 8 13 11 9 6 3 2 3 4 4
26 29 30 36 39 45 44 47 51 50 44 52 48 44 49 45 43 40 40 35 37 37 37 33 31 31 29 31 27 21 19 20 17 14 13 13 11 8 7 5 3 3 3
21 24 29 33 41 43 41 41 45 48 45 42 44 43 41 38 40 41 36 38 37 35 33 24 26 27 25 25 23 22 25 24 22 19 16 14 13 11 10 8 6 5 4
19 24 29 34 38 41 39 42 44 43 41 40 35 35 39 41 42 36 39 40 38 35 34 33 30 29 29 28 26 25 22 25 23 17 17 17 11 11 8 10 8 8 7
Wind_Direction
212 212 215 219 205 200 195 190 187 186 186 188 191 198 195 196 203 207 189 169 146 145 134 122 120 115 118 110 96 90 86 79 82 81 73 64 64 57 56 51 46 41 30
219 220 219 220 214 200 195 194 190 190 190 194 194 193 193 194 204 221 205 183 156 131 125 121 124 120 112 105 99 91 84 88 84 77 75 67 64 66 64 56 58 60 57
223 219 220 222 215 201 194 192 191 194 194 193 197 193 192 196 211 214 207 201 182 152 134 135 133 119 109 108 101 104 101 95 92 83 77 65 55 56 61 66 64 63 64
222 215 220 216 212 198 196 195 197 195 196 196 197 190 193 199 207 209 203 207 205 192 168 152 141 133 123 109 96 92 96 99 95 85 68 69 62 68 72 69 65 64 64
226 222 218 215 207 200 195 197 199 204 196 197 205 199 199 198 201 206 211 212 208 197 193 187 172 162 149 128 113 111 105 98 89 84 79 77 73 75 73 66 65 64 60
228 220 221 215 213 200 195 198 200 200 209 199 189 187 189 195 203 211 212 203 198 196 198 188 180 162 141 135 123 116 115 108 103 97 86 85 83 77 77 73 67 67 70
222 214 218 209 204 207 202 200 200 202 197 199 190 173 174 190 197 199 197 196 193 190 189 187 192 196 191 165 138 130 122 112 108 101 100 85 68 75 81 78 78 67 75
226 224 214 215 215 202 201 202 201 196 201 198 188 174 150 162 187 199 204 204 203 197 188 189 196 195 203 199 171 131 121 113 105 91 94 91 76 76 69 67 77 63 62
219 238 213 211 213 213 208 207 206 209 201 197 205 191 163 188 173 190 205 211 213 209 199 195 192 197 205 207 206 183 159 137 116 104 97 88 84 85 81 75 74 69 58
222 212 232 216 216 219 209 207 211 212 212 208 197 207 211 206 174 170 196 206 208 212 210 203 194 202 203 208 204 197 182 163 138 121 103 99 106 88 81 69 67 75 70
238 232 223 230 218 214 213 212 210 212 220 218 211 207 213 205 198 178 173 189 202 214 215 214 215 207 194 194 194 191 183 178 179 167 140 130 115 97 80 73 69 81 77
243 236 227 222 220 212 216 214 217 216 221 221 222 218 216 207 197 193 185 187 190 189 211 225 224 207 201 196 192 192 187 188 192 193 199 170 107 108 82 78 64 72 79
253 245 239 231 224 234 218 217 216 218 221 223 225 222 217 219 215 207 201 186 180 180 185 206 218 215 210 199 199 196 195 194 200 198 199 188 351 77 97 65 61 51 77
272 266 250 249 238 227 231 221 215 217 221 223 228 223 220 216 222 220 213 194 173 175 182 197 199 209 207 210 204 205 201 200 201 201 196 206 222 354 31 3 358 0 13
259 264 267 258 248 237 227 227 222 223 222 223 227 225 221 218 222 225 220 217 201 174 184 197 197 200 208 209 202 197 199 205 200 201 204 201 227 288 346 6 351 347 342
260 259 260 261 253 247 238 227 226 223 224 226 226 225 221 220 221 221 217 214 208 215 185 201 204 198 197 201 202 200 193 197 194 196 203 207 228 280 341 352 342 338 340
258 256 256 259 251 245 243 237 228 224 225 224 226 227 222 220 216 216 211 211 211 213 203 194 203 197 197 202 197 191 188 191 192 193 197 213 241 260 309 331 333 343 349
255 250 249 247 238 241 238 232 227 223 224 222 223 220 220 221 214 215 214 213 209 213 216 195 192 194 199 200 204 196 190 185 181 187 188 207 232 246 354 344 332 339 354
248 246 253 247 240 239 237 235 231 226 223 224 222 217 213 214 214 215 214 213 201 206 211 208 193 192 194 196 192 188 190 187 185 192 189 196 174 93 44 32 359 351 350
257 252 250 247 244 232 229 227 220 216 217 221 219 214 208 204 209 213 206 203 197 199 211 211 192 190 196 192 200 196 185 187 193 190 186 199 160 104 81 356 349 13 353
254 246 248 248 247 231 229 223 222 221 216 211 209 212 205 206 206 201 199 198 197 200 211 201 192 190 192 193 197 196 195 189 190 195 203 213 253 53 22 16 14 17 2
256 248 246 248 237 229 230 230 227 218 214 200 207 202 198 200 201 204 206 210 208 212 202 201 199 195 196 197 201 196 191 189 193 204 211 220 234 260 332 25 21 14 11
251 243 246 240 236 226 228 228 218 216 212 208 209 195 187 191 196 188 192 208 210 219 222 217 210 205 204 203 201 195 200 206 209 205 215 225 234 227 228 220 345 0 356
250 241 238 225 227 226 224 209 209 201 204 196 192 194 192 189 190 197 200 208 206 207 214 218 226 220 215 207 203 202 199 201 207 221 213 225 231 228 228 240 291 300 307
241 230 224 224 213 208 211 203 197 186 183 182 183 186 186 196 203 201 205 196 203 200 199 212 219 218 212 206 198 192 199 203 207 208 207 218 223 217 229 248 265 238 257
233 220 210 209 206 197 179 176 182 181 179 183 187 193 199 205 211 191 194 196 187 188 193 192 192 192 196 193 194 204 210 209 208 201 207 210 207 210 233 250 234 224 237
Height
1500 1504 1508 1511 1514 1518 1523 1525 1526 1530 1534 1535 1536 1537 1540 1544 1546 1548 1550 1550 1551 1552 1551 1553 1555 1556 1557 1557 1557 1558 1557 1556 1556 1555 1554 1554 1553 1553 1553 1551 1551 1550 1549
1493 1498 1502 1505 1509 1513 1519 1523 1522 1527 1531 1534 1536 1536 1538 1541 1546 1547 1549 1550 1551 1553 1552 1553 1555 1555 1557 1557 1557 1558 1558 1558 1557 1557 1556 1555 1555 1554 1553 1553 1553 1551 1550
1488 1491 1496 1499 1503 1509 1513 1518 1519 1523 1528 1532 1535 1536 1538 1542 1545 1547 1549 1550 1552 1552 1553 1554 1555 1555 1558 1558 1558 1559 1559 1560 1559 1559 1557 1557 1556 1555 1555 1555 1554 1553 1552
1480 1484 1489 1493 1497 1502 1508 1513 1514 1518 1524 1529 1532 1534 1538 1540 1544 1545 1548 1550 1551 1552 1553 1553 1554 1554 1557 1559 1559 1559 1560 1561 1560 1559 1558 1558 1557 1557 1557 1556 1556 1555 1554
1473 1476 1482 1487 1491 1495 1501 1508 1513 1516 1519 1526 1531 1532 1534 1536 1541 1544 1546 1548 1550 1551 1552 1554 1554 1554 1554 1559 1559 1561 1561 1562 1562 1561 1561 1560 1559 1558 1558 1558 1557 1556 1555
1462 1467 1475 1481 1486 1491 1495 1503 1508 1512 1516 1520 1527 1530 1533 1536 1538 1541 1545 1547 1548 1550 1551 1553 1554 1555 1555 1556 1559 1562 1562 1562 1562 1561 1562 1562 1560 1559 1559 1559 1558 1557 1556
1454 1460 1466 1474 1478 1484 1489 1495 1501 1506 1511 1515 1521 1528 1532 1535 1537 1539 1542 1545 1548 1549 1550 1552 1554 1554 1554 1557 1559 1560 1561 1561 1561 1560 1561 1561 1561 1560 1559 1559 1558 1557 1556
1448 1451 1456 1465 1472 1478 1483 1490 1493 1499 1507 1507 1513 1521 1529 1535 1534 1537 1539 1543 1545 1548 1551 1551 1553 1554 1553 1556 1557 1559 1561 1560 1561 1561 1560 1560 1561 1561 1560 1558 1558 1558 1557
1445 1443 1447 1453 1464 1471 1476 1481 1487 1491 1496 1501 1507 1511 1520 1524 1528 1533 1536 1540 1543 1546 1549 1550 1552 1551 1554 1556 1557 1557 1558 1559 1562 1561 1561 1561 1562 1562 1561 1559 1558 1559 1557
1430 1439 1439 1447 1455 1461 1467 1471 1477 1485 1490 1491 1502 1505 1507 1510 1518 1527 1533 1536 1540 1545 1546 1550 1550 1551 1552 1554 1556 1557 1557 1558 1561 1562 1561 1561 1562 1562 1561 1559 1559 1559 1558
1431 1438 1438 1445 1447 1452 1458 1461 1468 1474 1481 1487 1492 1497 1503 1507 1508 1509 1521 1529 1534 1541 1545 1547 1550 1549 1551 1553 1555 1556 1556 1557 1558 1561 1561 1561 1562 1562 1561 1560 1560 1560 1559
1428 1434 1435 1438 1430 1441 1450 1454 1459 1464 1470 1478 1487 1491 1495 1498 1501 1505 1510 1521 1527 1535 1539 1542 1545 1549 1551 1552 1553 1554 1556 1557 1559 1560 1560 1560 1560 1560 1560 1561 1560 1559 1559
1420 1424 1427 1429 1428 1434 1441 1443 1449 1453 1462 1469 1477 1485 1491 1497 1502 1504 1507 1514 1522 1534 1536 1540 1542 1544 1549 1550 1552 1555 1555 1556 1557 1557 1559 1559 1559 1559 1559 1559 1559 1559 1558
1416 1417 1421 1425 1428 1429 1433 1441 1437 1445 1451 1462 1468 1478 1485 1492 1498 1501 1503 1506 1522 1529 1530 1534 1538 1543 1545 1548 1550 1553 1555 1555 1556 1557 1557 1559 1559 1558 1558 1558 1558 1557 1558
1410 1408 1410 1413 1418 1425 1432 1433 1437 1442 1446 1452 1460 1470 1479 1486 1493 1497 1500 1503 1501 1512 1520 1526 1531 1537 1542 1544 1548 1550 1552 1554 1554 1556 1558 1557 1558 1558 1557 1557 1558 1558 1558
1402 1404 1404 1405 1410 1416 1421 1427 1434 1436 1441 1450 1455 1460 1471 1479 1487 1492 1495 1499 1501 1504 1509 1515 1521 1529 1537 1542 1547 1550 1550 1552 1554 1554 1557 1557 1556 1556 1555 1555 1556 1558 1557
1394 1397 1397 1399 1403 1407 1412 1418 1424 1429 1432 1437 1449 1456 1465 1473 1480 1488 1492 1496 1499 1504 1505 1512 1521 1528 1531 1537 1541 1546 1547 1551 1552 1553 1553 1556 1556 1555 1554 1553 1554 1556 1556
1387 1389 1389 1391 1395 1399 1402 1406 1412 1418 1427 1431 1443 1446 1456 1470 1475 1483 1490 1492 1495 1503 1506 1507 1518 1524 1531 1536 1541 1543 1546 1549 1549 1550 1552 1553 1555 1555 1553 1553 1553 1553 1555
1377 1378 1380 1381 1386 1389 1394 1397 1403 1409 1416 1423 1430 1440 1447 1456 1469 1475 1482 1488 1492 1501 1506 1507 1513 1521 1528 1533 1537 1540 1544 1547 1548 1551 1551 1552 1553 1553 1552 1552 1553 1553 1553
1367 1367 1369 1371 1376 1379 1383 1387 1393 1399 1404 1412 1421 1432 1440 1450 1459 1469 1474 1482 1486 1497 1503 1507 1509 1515 1524 1529 1533 1534 1538 1543 1547 1548 1550 1550 1551 1552 1552 1552 1552 1552 1551
1356 1358 1362 1364 1367 1370 1374 1380 1386 1391 1398 1406 1415 1425 1434 1445 1454 1464 1471 1477 1482 1489 1497 1501 1505 1510 1517 1522 1525 1528 1534 1538 1543 1546 1549 1549 1549 1550 1551 1551 1551 1551 1550
1349 1351 1353 1357 1361 1362 1367 1374 1381 1388 1394 1402 1409 1421 1432 1441 1448 1458 1468 1473 1478 1482 1489 1497 1499 1506 1510 1516 1524 1526 1531 1533 1540 1541 1545 1547 1547 1549 1550 1551 1550 1549 1549
1341 1343 1346 1349 1354 1357 1363 1369 1376 1382 1388 1394 1403 1413 1425 1433 1442 1452 1460 1468 1474 1482 1485 1492 1496 1504 1506 1510 1518 1523 1527 1533 1536 1539 1541 1543 1544 1547 1549 1550 1550 1549 1548
1334 1336 1339 1344 1348 1352 1356 1363 1368 1374 1383 1392 1399 1409 1420 1428 1438 1446 1451 1465 1471 1479 1482 1490 1497 1501 1504 1509 1517 1521 1528 1532 1535 1537 1539 1540 1542 1545 1548 1549 1548 1549 1549
1331 1334 1338 1341 1346 1350 1354 1360 1366 1374 1381 1390 1399 1409 1418 1426 1433 1443 1451 1462 1469 1476 1482 1491 1496 1502 1507 1511 1512 1519 1525 1528 1531 1534 1536 1538 1540 1543 1546 1547 1547 1545 1549
1333 1335 1337 1341 1345 1350 1356 1361 1368 1375 1383 1391 1399 1407 1416 1424 1433 1440 1451 1460 1465 1471 1477 1484 1490 1496 1504 1508 1510 1516 1521 1524 1526 1531 1533 1536 1537 1541 1543 1543 1543 1544 1546